User: anonymous   Login
Location: Caltech
(34.1382°N, 118.1253°W)
Time: 15:28:12
(UTC-08:00)
Language:

SL-08 R/B - Orbit

View from above orbital plane
View from above orbital plane
View from above satellite
View from above satellite

Ground track
Ground track

The orbit data is extracted from the following two-line orbital elements,

1 27561U 02054C   17019.22912452  .00000036  00000-0  18906-4 0  9994
2 27561  98.2345 154.8771 0044977 275.9862  83.6211 14.55585092750611
Epoch (UTC): 19 January 2017 05:29:56
Eccentricity: 0.0044977
inclination: 98.2345°
perigee height: 675 km
apogee height: 739 km
right ascension of ascending node: 154.8771°
argument of perigee: 275.9862°
revolutions per day: 14.55585092
mean anomaly at epoch: 83.6211°
orbit number at epoch: 75061

The dashed part of the orbit path shows where the satellite is in the earth's shadow,  

DLR